Find Starlink 34297

NORAD ID: 64261 Int'l Des: 2025-120 Owner: SPXS Country: US Constellation: starlink operational
LEOCIRCULAR

現在のビュー

3D地球を読み込み中...

About Starlink 34297

Starlink 34297 (NORAD 64261) is a starlink constellation satellite (v2 mini) launched Jun 4, 2025 by SPXS of US. It operates in LEO, CIRCULAR orbit with a mass of 575.00 kg.

次回通過

Passes for default location (London). Set your location on the main map for personalized predictions.

高度履歴

Loading altitude history...

軌道要素

1 64261U 25120F 26265.12775419 .00012063 00000-0 36757-3 0 9999
2 64261 53.1597 278.4459 0000564 35.2701 324.8339 15.34398894 73964
Epoch: Sep 22, 2026 • Age: 23 hours

現在のステータス

高度 470.6 km
遠地点 / 近地点 N/A
速度 7.63 km/s
衛星直下点 -25.72°S, 84.99°E
打ち上げ日 Jun 4, 2025
運用期間 1.3 years
タイプ internet

技術仕様

分類 Payload
質量 575.00 kg
乾燥質量 530.00 kg
長さ 0.30 m
スパン 29.00 m
形状 ? Box + pan
製造者 SPXS
バスタイプ Starlink V2MO
フェーズステータス In Orbit
所有者/国 SPXS/US

Most Searched